Regional Weather Roundup
Issued by NWS Northern Indiana

Home | Current Version | Previous Version | Graphics & Text | Print | Product List | Glossary On
Versions: 1 2 3 4 5 6 7 8 9 10 11 12 13 14 15 16 17 18 19 20 21 22 23 24 25 26 27 28 29 30 31 32 33 34 35 36 37 38 39 40 41 42 43 44 45 46 47 48 49 50
000
ASUS43 KIWX 040200
RWRIWX

KIWX WEATHER ROUNDUP
NATIONAL WEATHER SERVICE NORTHERN INDIANA
900 PM EST TUE MAR 03 2015

NOTE: "FAIR" INDICATES FEW OR NO CLOUDS BELOW 12,000 FEET WITH NO
SIGNIFICANT WEATHER AND/OR OBSTRUCTIONS TO VISIBILITY.

* THESE STATIONS ARE NOT UNDER NWS QUALITY CONTROL. THEY ALSO MAY NOT
  REPORT WEATHER SUCH AS PRECIPITATION OR FOG.

INZ001>027-040300-
NORTHERN INDIANA

CITY           SKY/WX    TMP DP  RH WIND       PRES   REMARKS
GARY*          CLOUDY    36  27  69 W14       29.81R
SOUTH BEND     CLOUDY    35  32  88 W13       29.79R WCI  26
GOSHEN         CLOUDY    35  30  82 W16       29.75R WCI  25
MONTICELLO*    CLOUDY    34  33  94 W9        29.82R WCI  27
ANGOLA*        CLOUDY    34  25  69 W13       29.73R WCI  25
FORT WAYNE     CLOUDY    35  32  88 W16       29.78R WCI  25
PERU/GRISSOM   CLOUDY    34  33  93 W13       29.80R WCI  25

$$
INZ028>050-040300-
CENTRAL INDIANA

CITY           SKY/WX    TMP DP  RH WIND       PRES   REMARKS
LAFAYETTE      CLOUDY    35  33  92 W9        29.84R WCI  28
KOKOMO*        CLOUDY    36  30  80 W14       29.81R
MUNCIE*        CLOUDY    37  34  89 W12       29.81R
INDIANAPOLIS   CLOUDY    37  34  89 W14       29.84R

$$
MIZ043>046-050>051-056>058-064>065-071>073-077>080-040300-
SOUTHWEST LOWER MICHIGAN

CITY           SKY/WX    TMP DP  RH WIND       PRES   REMARKS
BATTLE CREEK   CLOUDY    34  28  79 W15G28    29.73R WCI  24
BENTON HARBOR  CLOUDY    32  30  92 W15       29.77R WCI  22
COLDWATER*     CLOUDY    34  29  82 W17G23    29.73R WCI  23
HILLSDALE*     CLOUDY    34  31  87 W18G32    29.70R WCI  23
HOLLAND        CLOUDY    32  26  78 W10       29.76R WCI  24
GRAND RAPIDS   CLOUDY    31  26  82 W18       29.72R WCI  19
KALAMAZOO      CLOUDY    34  28  79 W12       29.74R WCI  25
STURGIS*       CLOUDY    34  30  86 W15       29.74R WCI  24
THREE RIVERS*  CLOUDY    34  29  83 W15       29.75R WCI  24

$$
OHZ001>008-015>018-024>025-040300-
NORTHWEST OHIO

CITY           SKY/WX    TMP DP  RH WIND       PRES   REMARKS
DEFIANCE       CLOUDY    37  32  82 W10G20    29.75R
FINDLAY        CLOUDY    36  33  89 W21       29.75R
TOLEDO EXPRESS CLOUDY    35  32  88 W16       29.72R WCI  25
TOLEDO METCALF CLOUDY    37  32  82 W15G23    29.72R
LIMA           CLOUDY    37  32  82 W25G32    29.77R

$$
AND FOR LAKE MICHIGAN COASTAL AND OPEN LAKE BUOY OBSERVATIONS

STATION/POSITION TEMP    WIND        PRES    VSBY  WAVE
                 AIR SEA DIR/SP/G                  HT/PER
                 (F)     (DEG/KT/KT) (MB)    (MI)  (FT/S)
CALUMET HARBOR    35     260/  4/ 11 1007.8R
MICHIGAN CITY     33     240/ 12/ 13   N/A
SAINT JOSEPH      33     230/  8/ 14 1008.5R

$$
&&


USA.gov is the U.S. government's official web portal to all federal, state and local government web resources and services.